Location: Härggis
(46.9540°N, 8.4897°E)
Time: 00:17:59
(UTC+00:00)

SL-16 R/B - Pass Details

Date: 27 May 2022
Orbit: 839 x 850 km, 71.0° (Epoch: 26 June)

Event Time Altitude Azimuth Distance (km) Brightness Sun altitude
Exits shadow 01:44:23 22° 223° (SW) 1,779 3.3 -14.7°
Maximum altitude 01:48:06 64° 300° (WNW) 934 2.4 -14.4°
Drops below altitude 10° 01:53:45 10° 22° (NNE) 2,478 6.0 -13.8°
Sets 01:56:15 0° 26° (NNE) 3,419 7.2 -13.5°
